Regional Weather Roundup
Issued by NWS

Home | Current Version | Previous Version | Text Only | Print | Product List | Glossary On
Versions: 1 2 3 4 5 6 7 8 9 10 11 12 13 14 15 16 17 18 19 20 21 22 23 24 25 26 27 28 29 30 31 32 33 34 35 36 37 38 39 40 41 42 43 44 45 46 47 48 49 50
000
ASUS43 KLSX 240107
RWRMO

WEATHER SUMMARY FOR MISSOURI
NATIONAL WEATHER SERVICE SPRINGFIELD MO
700 PM CST SUN NOV 23 2014

NOTE: "FAIR" INDICATES FEW OR NO CLOUDS BELOW 12,000 FEET WITH NO
       SIGNIFICANT WEATHER AND/OR OBSTRUCTIONS TO VISIBILITY.
       CURRENT SKY AND/OR WEATHER CONDITIONS ARE NOT AVAILABLE FOR
       CHILLICOTHE AND FARMINGTON.

MOZ001>031-035>038-043-044-053-054-240200-
...NORTHERN AND WESTERN MISSOURI...

CITY           SKY/WX    TMP DP  RH WIND       PRES   REMARKS
KANSAS CTY INT LGT RAIN  43  41  93 NW24G36   29.42R
KANSAS C DTWN  LGT RAIN  45  41  86 NW15G28   29.41R
ST JOSEPH      LGT RAIN  42  38  85 N30G44    29.47R
CHILLICOTHE      N/A     46  43  89 N12G22    29.35R
KIRKSVILLE     LGT RAIN  53  53 100 NW5       29.28F FOG

$$
MOZ066>068-077>081-088>096-101>105-240200-
...SOUTHWEST MISSOURI...

CITY           SKY/WX    TMP DP  RH WIND       PRES   REMARKS
SPRINGFIELD    HVY RAIN  56  54  93 CALM      29.29S FOG
JOPLIN         HVY RAIN  52  51  97 NW28G36   29.34R FOG

$$
MOZ032>034-039>042-045>050-055>058-069>072-240200-
...CENTRAL MISSOURI...

CITY           SKY/WX    TMP DP  RH WIND       PRES   REMARKS
COLUMBIA       FOG       52  52 100 SW6       29.29R VSB 3/4
JEFFERSON CITY CLOUDY    54  53  97 CALM      29.30R FOG
ROLLA          CLOUDY    53  52  96 SW8       29.28S
SEDALIA        FOG       54  53  97 NW3       29.30S VSB 1/2
WHITEMAN AFB   DRIZZLE   54  52  94 NW23G30   29.30R FOG
WARRENSBURG    CLOUDY    46  45  93 NW15G28   29.34R
OSAGE BEACH    CLOUDY    54  52  94 CALM      29.29F VSB<1/4

$$
MOZ051-052-059>065-240200-
...EAST CENTRAL MISSOURI...

CITY           SKY/WX    TMP DP  RH WIND       PRES   REMARKS
ST LOUIS INTL  DRIZZLE   55  54  94 S3        29.28F FOG
SPIRIT OF STL  FOG       52  52 100 CALM      29.26F VSB 1/2
ST CHARLES     LGT RAIN  51  51 100 E5        29.27F VSB 3/4

$$
MOZ072>076-082>087-097>100-106>115-240200-
...SOUTH CENTRAL AND SOUTHEAST MISSOURI...

CITY           SKY/WX    TMP DP  RH WIND       PRES   REMARKS
CAPE GIRARDEAU CLOUDY    55  54  96 S8        29.30F
FARMINGTON     CLOUDY    54  54 100 SE5       29.32S
POPLAR BLUFF   CLOUDY    56  54  93 SW7       29.33S FOG
WEST PLAINS    CLOUDY    56  55  97 SW5       29.35R FOG

$$



USA.gov is the U.S. government's official web portal to all federal, state and local government web resources and services.